Location: Newark
(6.9000°N, 10.0000°E)
Time: 23:22:25
(UTC+00:00)

Envisat - Pass Details

Date: 26 October 2019
Orbit: 764 x 766 km, 98.1° (Epoch: 16 November)

Event Time Altitude Azimuth Distance (km) Brightness Sun altitude
Rises 18:35:35 0° 194° (SSW) 3,223 6.6 -23.8°
Reaches altitude 10° 18:38:21 10° 209° (SSW) 2,296 5.9 -24.5°
Maximum altitude 18:42:12 22° 259° (W) 1,617 5.4 -25.4°
Drops below altitude 10° 18:46:04 10° 309° (NW) 2,293 5.9 -26.3°
Sets 18:48:50 0° 324° (NW) 3,217 6.5 -27.0°
